Location: Newark
(44.6028°N, 124.0883°W)
Time: 05:22:06
(UTC+00:00)

Vanguard 1 - Pass Details

Date: 26 October 2019
Orbit: 652 x 3831 km, 34.2° (Epoch: 11 November)

Event Time Altitude Azimuth Distance (km) Brightness Sun altitude
Rises 04:53:21 0° 263° (W) 4,171 14.0 -38.8°
Reaches altitude 10° 04:55:47 10° 257° (WSW) 3,493 13.3 -39.2°
Enters shadow 05:03:17 45° 203° (SSW) 2,512 11.9 -40.4°
Maximum altitude 05:04:33 46° 187° (S) 2,590 - -40.6°
Drops below altitude 10° 05:20:07 10° 122° (ESE) 6,028 - -43.0°
Sets 05:25:56 0° 118° (ESE) 7,443 - -43.9°
